Temp
81 71 66 69 70 72 69 68 64 68 74 69 67 67 68 71 72 71 71 72 71 70 72 71 71 70 67 64 62 62 61 61 59 59 60 58 59 58 58 59 62 62 61 61
73 66 78 83 76 73 71 66 62 70 75 69 67 67 69 71 71 73 72 73 72 70 70 70 69 68 67 64 62 60 61 59 59 59 59 59 59 59 59 59 60 61 61 60
68 76 85 82 76 72 70 67 65 67 72 68 64 62 65 70 70 71 73 75 75 70 70 69 69 68 67 64 62 62 60 60 60 61 59 59 58 58 58 57 58 59 62 61
73 79 83 79 75 74 64 75 74 71 64 56 65 51 59 60 64 68 72 73 70 72 73 71 69 67 67 66 65 62 60 59 60 60 58 57 55 54 55 56 56 58 61 60
74 77 75 75 76 78 72 75 71 68 60 54 57 52 55 60 63 67 70 71 71 72 73 73 69 69 69 68 64 63 61 59 59 59 58 56 55 55 56 56 56 56 57 59
75 80 79 78 83 82 79 71 64 60 56 48 54 53 55 53 61 64 71 72 72 72 72 73 73 72 69 66 64 64 61 59 59 59 59 57 57 56 55 55 54 54 54 56
72 74 82 83 75 77 73 60 51 50 47 47 57 55 58 63 68 69 75 77 75 74 71 72 73 70 66 64 64 64 61 59 60 59 59 58 57 57 57 56 55 54 54 54
62 63 74 82 74 68 66 61 51 44 45 48 60 52 59 70 71 74 78 76 71 73 74 74 73 70 66 65 64 65 62 59 60 60 59 58 59 57 57 56 54 55 55 56
60 65 78 83 81 76 65 59 63 55 55 49 53 59 64 66 70 73 73 67 66 66 71 75 74 71 67 64 64 66 63 60 60 60 59 59 59 57 57 57 56 56 56 58
68 61 75 80 82 75 71 69 58 57 46 43 51 53 55 63 64 69 65 60 63 64 69 71 71 69 66 65 68 67 65 62 61 60 59 60 59 59 58 57 57 57 57 57
71 64 68 73 67 65 64 61 57 57 53 46 44 51 65 63 65 63 60 60 60 64 63 64 65 66 66 66 66 65 64 61 60 62 61 62 59 59 58 57 57 57 57 57
69 61 58 65 72 74 69 64 57 51 53 51 49 51 62 65 64 61 62 60 62 64 64 65 65 65 66 65 64 62 63 64 65 66 61 60 59 59 57 58 58 58 58 58
68 59 53 58 64 69 64 65 62 56 53 49 49 53 65 64 61 59 60 62 60 61 63 64 64 65 68 64 64 64 63 64 64 63 62 59 58 57 58 58 58 58 58 59
68 59 57 53 59 64 62 69 66 60 49 52 55 58 61 60 60 62 62 62 59 60 63 63 62 63 64 65 64 64 64 64 65 63 61 59 58 58 58 58 58 59 60 59
67 59 60 64 69 70 70 69 69 62 61 57 60 59 61 60 61 61 62 61 65 64 65 63 62 62 62 63 63 65 64 64 63 63 61 60 59 59 59 59 59 59 59 59
64 60 59 61 69 70 67 69 70 68 68 63 63 59 63 62 59 62 61 63 63 64 66 65 64 65 64 64 63 64 63 61 63 63 63 62 61 60 59 59 59 59 59 58
64 60 56 55 64 65 59 65 67 68 68 66 58 64 64 62 64 62 62 62 64 65 66 66 65 66 65 64 64 61 61 63 64 64 65 65 64 62 61 60 59 59 58 57
62 59 56 53 57 48 63 68 71 67 68 68 66 66 66 66 65 65 64 63 67 67 66 65 64 64 64 62 62 63 64 63 64 63 64 65 64 63 62 60 59 58 57 58
66 58 55 53 50 59 65 66 63 59 62 68 66 68 70 68 65 65 69 69 67 66 65 64 65 64 63 64 64 64 63 63 64 64 63 64 64 62 61 60 59 58 56 57
65 60 58 52 50 48 59 68 70 66 54 68 67 69 71 67 55 58 67 70 68 67 66 66 65 64 64 63 64 64 63 62 63 65 65 65 63 61 60 58 58 58 57 57
55 55 53 47 50 56 65 69 68 54 52 61 63 64 61 58 62 67 69 68 67 69 67 66 66 64 64 63 64 60 60 60 61 64 64 63 61 60 59 58 57 57 57 57
55 52 49 49 47 48 66 67 59 58 59 62 63 64 64 64 69 69 70 68 68 66 66 66 64 63 62 63 63 59 60 61 63 62 62 61 60 60 60 57 56 56 55 54
54 57 53 53 52 58 60 60 63 62 62 62 63 65 66 64 72 73 69 66 66 65 65 66 62 59 59 60 60 59 59 61 61 60 58 57 57 56 55 53 53 53 51 49
58 60 55 55 57 59 61 63 63 64 63 64 69 66 67 67 69 67 68 64 62 63 62 63 61 59 58 60 60 58 59 60 58 55 54 53 52 53 51 52 51 50 48 48
60 58 55 54 57 60 61 61 62 64 65 67 70 69 69 69 65 64 63 62 62 62 63 62 60 59 59 59 57 57 57 56 55 53 53 52 52 50 51 52 51 52 48 47
59 59 55 54 60 60 59 61 64 64 65 66 67 68 69 68 65 64 62 62 62 61 61 59 58 57 57 56 55 56 55 54 52 53 53 51 50 51 51 50 51 49 44 43
MSLP
1010.05 1010.92 1011.67 1011.90 1012.45 1012.39 1013.12 1013.50 1013.75 1013.18 1013.12 1013.98 1014.88 1014.79 1014.93 1015.03 1015.53 1015.73 1015.88 1015.94 1016.46 1017.01 1017.70 1018.38 1018.81 1019.29 1019.69 1019.92 1020.01 1019.96 1020.13 1020.32 1020.43 1020.49 1020.49 1020.70 1020.70 1020.76 1020.78 1020.50 1020.14 1020.09 1020.14 1020.09
1010.61 1011.05 1010.59 1010.41 1010.83 1011.73 1012.11 1013.13 1013.43 1013.08 1012.44 1013.56 1014.37 1014.19 1014.53 1014.90 1014.53 1014.56 1015.04 1015.35 1015.74 1016.87 1017.60 1018.17 1018.60 1019.04 1019.29 1019.50 1019.79 1019.92 1019.92 1020.08 1020.21 1020.28 1020.23 1020.31 1020.44 1020.61 1020.46 1020.36 1020.28 1020.15 1019.99 1020.01
1011.03 1010.41 1009.35 1009.05 1009.89 1010.66 1010.93 1011.54 1012.32 1012.50 1012.98 1013.86 1014.21 1014.89 1015.30 1015.78 1015.76 1015.62 1015.61 1014.94 1015.12 1015.75 1016.64 1017.55 1018.10 1018.44 1018.86 1019.14 1019.24 1019.50 1019.60 1019.59 1019.82 1020.07 1020.24 1020.29 1020.38 1020.54 1020.73 1020.72 1020.53 1020.37 1020.14 1020.07
1010.55 1009.89 1009.96 1009.56 1009.24 1009.66 1010.25 1010.63 1011.74 1012.60 1013.33 1014.69 1015.08 1016.63 1016.44 1016.61 1015.66 1015.54 1015.31 1015.40 1014.98 1015.16 1015.71 1016.40 1017.43 1017.99 1018.29 1018.71 1019.09 1019.44 1019.71 1019.76 1019.69 1019.72 1020.12 1020.42 1020.63 1020.93 1020.88 1020.53 1020.57 1020.24 1020.13 1020.12
1009.94 1009.73 1009.52 1009.53 1009.01 1009.03 1009.78 1010.53 1011.55 1012.84 1014.01 1015.33 1016.15 1016.63 1016.71 1016.35 1014.78 1014.40 1014.58 1014.59 1014.51 1014.38 1015.02 1015.75 1016.56 1017.28 1017.90 1018.58 1019.23 1019.20 1019.53 1019.83 1019.63 1019.60 1019.81 1020.30 1020.73 1020.75 1020.61 1020.67 1020.58 1020.38 1020.45 1020.19
1009.92 1009.45 1009.28 1008.68 1008.40 1008.83 1009.79 1011.25 1012.36 1013.74 1015.12 1016.30 1016.51 1016.78 1016.25 1016.21 1014.98 1014.21 1013.76 1012.65 1013.32 1013.57 1014.84 1015.32 1015.78 1016.78 1017.62 1018.37 1018.92 1019.34 1019.45 1019.66 1019.52 1019.44 1019.69 1020.08 1020.51 1020.73 1020.82 1020.75 1020.93 1020.78 1020.63 1020.42
1010.28 1009.84 1008.92 1008.50 1008.66 1009.12 1010.10 1012.02 1014.09 1015.41 1016.18 1016.87 1016.45 1016.38 1015.23 1014.42 1014.04 1013.00 1011.68 1011.35 1011.47 1012.85 1013.83 1014.79 1015.33 1016.27 1016.84 1017.47 1018.44 1018.70 1018.74 1019.44 1019.66 1019.60 1019.50 1019.71 1020.10 1020.32 1020.47 1020.60 1020.67 1020.94 1020.72 1020.53
1011.10 1010.40 1009.34 1008.77 1008.91 1009.78 1011.03 1012.78 1014.76 1015.94 1016.99 1017.13 1016.39 1015.87 1014.51 1013.56 1012.79 1012.39 1011.57 1011.27 1011.42 1012.22 1013.19 1014.01 1014.24 1015.01 1015.99 1016.93 1017.87 1018.11 1018.51 1018.99 1019.29 1019.33 1019.39 1019.50 1019.81 1020.21 1020.37 1020.42 1020.50 1020.43 1020.28 1020.04
1011.17 1010.53 1009.48 1009.09 1009.16 1010.05 1011.98 1013.41 1014.34 1015.38 1016.21 1017.06 1016.31 1015.16 1014.29 1013.80 1013.31 1012.65 1013.11 1013.78 1013.74 1013.83 1014.10 1013.68 1013.87 1014.62 1015.60 1016.52 1017.06 1017.17 1017.86 1018.45 1018.66 1018.98 1019.09 1019.27 1019.33 1019.85 1020.07 1020.11 1020.14 1020.01 1019.90 1019.61
1010.69 1011.08 1010.05 1009.56 1009.30 1010.93 1011.70 1013.33 1014.26 1015.53 1017.18 1017.35 1016.28 1015.45 1014.67 1014.21 1014.03 1013.83 1014.88 1015.50 1014.74 1014.21 1014.07 1014.61 1015.91 1016.04 1016.58 1016.25 1016.18 1016.66 1017.04 1017.40 1018.04 1018.53 1018.70 1018.72 1018.72 1019.16 1019.58 1019.71 1019.74 1019.66 1019.50 1019.36
1010.05 1011.07 1010.59 1010.44 1010.45 1011.18 1012.36 1013.45 1014.89 1015.90 1017.13 1017.47 1017.05 1015.32 1013.58 1013.46 1013.71 1014.60 1015.70 1015.64 1015.16 1014.36 1013.95 1013.88 1014.19 1016.26 1016.68 1016.50 1016.94 1016.81 1017.15 1017.37 1017.88 1017.95 1018.27 1018.43 1018.43 1018.79 1019.26 1019.35 1019.31 1019.14 1018.99 1018.91
1010.21 1011.28 1011.63 1011.38 1010.95 1010.74 1011.37 1012.84 1014.39 1015.84 1016.89 1017.10 1016.95 1015.34 1014.18 1013.96 1014.36 1015.01 1015.48 1015.87 1015.30 1014.88 1014.96 1014.90 1014.85 1014.94 1016.26 1016.86 1017.96 1017.41 1017.50 1017.27 1017.21 1017.31 1017.94 1018.22 1018.07 1018.42 1018.93 1018.94 1018.81 1018.69 1018.61 1018.48
1010.33 1011.80 1012.48 1012.41 1011.92 1011.29 1012.04 1012.50 1013.50 1014.67 1015.55 1016.39 1016.67 1015.18 1014.36 1014.19 1014.75 1015.91 1015.86 1016.08 1015.80 1015.46 1014.93 1015.23 1014.79 1015.00 1015.94 1017.02 1017.91 1018.04 1017.80 1017.12 1016.85 1017.12 1017.69 1017.98 1018.03 1018.38 1018.60 1018.50 1018.42 1018.40 1018.27 1018.09
1010.15 1011.97 1012.64 1012.94 1012.35 1011.88 1012.14 1011.82 1012.35 1013.12 1014.94 1015.38 1014.91 1014.46 1014.41 1014.58 1014.93 1015.05 1015.26 1015.71 1015.73 1015.10 1014.94 1014.74 1014.87 1014.81 1015.37 1016.17 1017.06 1017.38 1017.47 1016.77 1016.61 1017.18 1017.63 1017.98 1018.06 1018.14 1018.10 1017.98 1017.97 1017.76 1017.51 1017.41
1011.12 1012.39 1012.42 1012.30 1012.02 1011.51 1011.65 1011.75 1011.80 1012.50 1012.76 1013.70 1013.38 1013.87 1013.85 1014.70 1014.96 1015.09 1015.45 1015.40 1015.25 1014.93 1014.86 1014.72 1014.91 1014.95 1015.61 1016.10 1016.52 1016.86 1017.04 1016.72 1016.90 1017.23 1017.52 1017.68 1017.62 1017.61 1017.64 1017.56 1017.33 1017.20 1017.04 1016.65
1011.67 1012.42 1012.66 1012.65 1012.04 1011.84 1011.89 1011.74 1011.25 1011.47 1012.10 1013.00 1013.16 1014.14 1014.31 1014.50 1014.98 1014.89 1015.35 1015.48 1015.14 1014.87 1014.45 1014.24 1014.59 1014.89 1015.47 1016.03 1016.36 1016.50 1016.80 1017.24 1017.15 1017.23 1017.27 1017.19 1017.25 1017.30 1017.24 1017.05 1016.83 1016.76 1016.47 1016.22
1012.15 1012.92 1013.53 1013.49 1012.85 1012.40 1012.34 1012.22 1011.76 1011.87 1011.92 1013.18 1013.63 1013.81 1014.37 1014.98 1015.19 1015.04 1015.16 1015.16 1014.92 1014.85 1014.38 1014.14 1013.61 1014.31 1015.08 1015.28 1015.55 1016.69 1017.46 1017.19 1017.04 1017.05 1016.95 1016.80 1016.72 1016.79 1016.61 1016.41 1016.46 1016.36 1016.10 1015.86
1012.09 1013.07 1013.74 1014.29 1013.75 1013.64 1012.92 1012.47 1012.18 1012.61 1013.00 1013.15 1013.05 1013.60 1014.06 1014.55 1014.93 1014.72 1014.71 1014.61 1014.49 1014.34 1014.35 1014.36 1014.26 1014.48 1014.84 1015.43 1016.39 1016.85 1016.86 1016.93 1016.98 1016.87 1016.62 1016.38 1016.32 1016.30 1016.08 1016.11 1016.09 1015.88 1015.58 1015.39
1011.95 1013.27 1014.51 1015.00 1014.96 1014.11 1013.20 1012.73 1013.28 1014.26 1013.95 1013.87 1013.66 1014.02 1014.67 1014.86 1015.29 1014.59 1014.13 1014.25 1014.07 1014.15 1014.38 1014.37 1014.55 1015.01 1015.73 1015.92 1016.35 1016.73 1017.20 1017.34 1017.28 1017.03 1016.68 1016.33 1016.09 1016.09 1016.02 1015.97 1015.93 1015.85 1015.81 1015.37
1012.75 1013.46 1014.43 1015.65 1015.58 1014.92 1013.88 1013.67 1013.85 1014.31 1015.01 1015.07 1015.10 1015.37 1015.63 1015.87 1015.76 1015.11 1014.16 1014.07 1014.55 1014.54 1014.67 1014.99 1015.05 1015.51 1016.02 1016.41 1016.47 1017.03 1017.56 1017.60 1017.32 1016.86 1016.59 1016.23 1016.04 1016.08 1016.19 1016.19 1016.08 1015.60 1015.29 1014.96
1014.01 1014.85 1015.79 1016.51 1016.35 1015.21 1014.10 1014.17 1014.15 1015.58 1017.28 1016.65 1016.21 1015.78 1016.05 1017.62 1014.98 1013.81 1014.01 1014.19 1014.51 1014.78 1015.19 1015.47 1015.52 1015.88 1016.36 1016.53 1016.64 1017.37 1017.55 1017.77 1017.58 1017.06 1016.83 1016.45 1016.09 1016.03 1016.08 1016.04 1015.74 1015.46 1015.28 1014.86
1015.57 1016.13 1016.86 1017.19 1017.04 1016.46 1015.55 1015.33 1016.09 1017.73 1017.79 1017.07 1015.68 1015.75 1016.33 1015.71 1014.50 1014.08 1013.88 1014.51 1015.14 1015.75 1015.77 1015.68 1016.16 1016.51 1016.65 1016.83 1016.92 1017.71 1018.05 1017.91 1017.35 1017.25 1017.24 1016.92 1016.48 1016.32 1016.14 1015.97 1015.80 1015.60 1015.54 1015.22
1016.29 1016.46 1016.83 1017.77 1017.83 1017.18 1016.77 1016.49 1016.72 1016.45 1016.10 1015.56 1015.26 1014.65 1015.34 1015.45 1014.02 1013.56 1014.11 1014.71 1015.38 1015.83 1015.90 1015.97 1016.56 1017.55 1017.57 1017.70 1017.64 1017.94 1018.27 1017.84 1017.62 1017.50 1017.56 1017.45 1016.85 1016.62 1016.45 1016.39 1016.35 1016.21 1015.96 1015.89
1016.32 1016.47 1017.25 1018.11 1017.92 1017.31 1016.63 1016.61 1016.74 1016.17 1015.61 1014.90 1013.45 1014.39 1014.73 1015.41 1013.88 1013.62 1014.17 1015.17 1015.89 1016.27 1016.65 1016.79 1017.16 1017.92 1018.29 1018.10 1018.16 1018.35 1018.24 1018.00 1017.99 1018.01 1018.05 1017.80 1017.26 1017.04 1016.83 1016.62 1016.60 1016.64 1016.61 1016.59
1016.40 1016.76 1017.38 1018.01 1018.01 1017.76 1016.77 1016.14 1015.50 1014.66 1014.30 1014.51 1014.33 1014.50 1014.57 1014.23 1014.43 1014.57 1015.26 1015.97 1016.71 1017.07 1017.28 1017.22 1017.82 1018.43 1018.76 1018.74 1018.67 1018.72 1018.69 1018.45 1018.52 1018.42 1018.31 1017.93 1017.59 1017.49 1017.40 1017.08 1017.00 1017.17 1017.14 1016.96
1016.06 1016.16 1016.59 1016.37 1016.11 1016.02 1015.49 1014.86 1014.60 1014.71 1014.37 1014.08 1014.25 1014.53 1014.64 1013.90 1014.79 1015.28 1016.30 1016.95 1017.38 1017.69 1017.72 1017.94 1018.75 1019.00 1019.32 1019.37 1019.34 1019.24 1018.95 1018.81 1018.96 1018.76 1018.60 1018.38 1018.02 1017.91 1017.85 1017.72 1017.35 1017.15 1017.15 1016.96
Wind_Speed
5 5 8 12 12 7 7 3 4 8 6 4 6 8 16 17 14 10 12 14 13 15 11 12 13 11 9 7 7 7 7 3 1 0 2 1 2 1 1 3 5 5 4 4
7 6 14 13 9 8 6 6 8 8 6 7 6 9 13 16 19 18 16 15 14 11 11 13 13 12 12 10 8 7 7 5 2 2 1 1 2 1 2 3 3 4 4 4
5 11 18 3 4 4 6 8 3 4 3 4 2 5 4 2 6 8 10 16 13 16 18 16 15 14 12 12 11 9 8 8 5 4 1 2 2 3 2 1 2 2 3 4
6 4 11 6 2 5 2 2 6 4 2 2 3 2 4 6 9 10 12 12 8 14 17 17 15 13 14 12 9 8 7 7 5 5 4 2 2 1 3 2 1 3 4 4
11 8 9 7 6 4 5 5 3 4 5 3 5 5 6 2 13 15 9 10 10 16 19 19 18 16 13 10 8 8 7 7 6 6 6 5 3 2 1 2 3 4 2 3
9 2 4 5 4 4 6 2 10 6 3 4 3 4 4 6 10 6 11 17 14 16 15 15 14 12 10 8 8 7 8 7 7 7 6 6 4 3 1 2 3 1 2 1
8 5 8 2 6 5 6 8 5 6 6 5 5 2 8 5 11 17 15 8 18 15 18 15 17 13 13 13 11 9 9 8 7 7 7 7 6 4 2 3 2 3 2 2
1 13 1 5 3 3 6 7 5 2 3 3 5 4 5 6 7 6 8 5 7 14 17 17 18 16 16 14 12 12 11 8 8 8 8 6 6 3 3 3 4 3 3 4
5 8 5 4 4 3 3 5 3 5 5 2 4 6 1 5 6 7 9 18 12 8 4 16 16 15 14 12 16 14 12 8 9 8 7 7 6 5 6 6 4 3 4 3
7 4 4 4 7 10 6 4 3 4 2 5 6 4 5 5 6 4 13 5 7 4 8 8 6 4 5 12 15 12 13 13 9 8 7 7 8 7 6 5 7 6 6 4
6 6 9 4 0 8 1 2 6 4 5 4 3 7 7 5 8 4 7 4 5 3 8 10 8 4 6 9 9 7 9 8 7 9 7 7 7 7 6 6 7 7 6 7
2 6 3 4 8 4 5 6 6 6 4 2 5 9 6 5 7 8 3 3 7 7 8 8 7 10 7 9 4 6 5 8 11 9 7 8 7 6 6 7 7 6 7 6
1 3 3 6 8 5 3 4 4 5 4 5 5 8 1 2 3 1 4 7 3 5 7 7 11 16 12 5 2 4 5 8 7 6 7 7 7 6 8 7 7 6 7 7
8 3 7 7 7 4 5 11 8 6 5 5 8 7 6 3 1 5 5 2 9 5 6 6 7 8 6 5 6 6 7 6 5 6 6 6 7 8 8 8 7 7 7 7
6 2 1 4 5 2 6 8 6 6 5 8 6 6 3 4 7 6 4 5 6 1 5 6 4 4 5 6 7 6 6 4 2 4 4 7 7 7 7 7 8 7 7 8
3 2 1 4 4 6 3 6 13 8 4 2 9 4 4 2 1 5 3 5 7 7 10 8 8 8 5 7 7 6 5 2 3 4 4 5 6 6 8 8 8 7 8 8
2 3 3 5 4 5 6 5 2 3 6 3 5 6 5 2 7 6 7 6 6 8 9 7 4 11 10 10 9 6 5 4 4 4 5 5 5 6 7 7 7 8 8 6
6 5 4 3 4 4 7 4 2 9 5 4 5 8 9 6 7 5 6 5 5 4 5 5 5 6 6 6 5 6 5 4 6 7 7 6 6 7 7 6 7 7 6 8
5 5 2 4 3 4 5 4 4 4 3 1 5 4 3 3 2 4 4 5 5 6 6 6 6 5 6 7 5 5 1 3 4 6 7 7 6 7 6 6 6 6 5 6
5 5 6 2 3 5 4 4 3 3 5 7 3 4 8 8 1 6 5 6 6 7 7 8 8 7 8 4 7 7 5 4 5 5 5 5 5 5 6 4 6 4 4 6
4 3 4 2 3 6 4 2 2 5 8 11 6 6 8 10 8 5 7 6 6 9 9 7 7 8 7 5 8 8 6 7 6 5 6 7 6 6 6 4 3 4 6 6
1 1 2 2 2 2 8 5 5 5 2 2 16 16 13 17 7 4 6 8 8 8 8 7 7 6 4 7 7 6 6 5 5 6 6 6 7 5 4 6 6 6 7 7
3 4 4 3 5 5 4 6 6 8 9 7 6 8 13 17 6 9 7 9 8 8 6 5 9 7 7 7 6 8 4 4 5 7 7 6 6 6 6 7 7 5 6 5
2 2 4 2 5 6 5 4 7 7 7 10 5 8 8 14 2 4 8 6 5 4 6 10 11 8 7 6 7 6 6 6 6 7 5 5 6 8 7 5 4 4 5 5
4 3 4 2 5 6 8 8 8 8 8 4 1 4 12 6 8 10 11 9 7 8 9 10 9 7 7 6 8 7 6 6 6 5 5 6 6 6 6 5 2 4 3 2
5 6 5 7 9 7 8 9 11 4 5 4 4 7 1 12 12 13 10 7 8 9 9 9 7 7 6 6 5 5 6 7 6 5 5 4 4 5 4 4 6 9 6 7
Wind_Direction
342 24 277 223 202 188 182 322 156 264 213 107 267 251 191 192 206 214 208 193 185 190 184 171 172 169 166 165 168 168 165 188 137 235 114 87 174 169 172 200 171 150 147 121
5 292 268 279 182 213 170 172 217 251 93 134 214 253 190 195 204 211 203 204 187 178 167 175 177 176 180 173 179 181 175 170 156 154 208 179 224 189 188 190 208 168 151 131
149 262 302 240 143 212 250 131 212 186 97 31 299 35 76 9 335 297 264 213 200 177 178 180 185 185 182 182 180 180 184 174 168 166 87 11 18 55 25 274 268 234 166 133
259 287 346 13 287 145 54 164 168 165 95 7 354 313 18 336 292 289 266 239 205 191 187 179 186 195 189 189 178 171 180 184 173 138 122 143 129 142 222 232 200 206 165 149
274 282 324 251 250 151 207 133 123 82 85 94 2 78 276 157 260 249 262 236 213 195 185 186 190 198 191 172 184 179 171 190 174 159 146 135 149 209 284 315 18 113 163 166
249 42 245 236 360 59 121 143 36 52 55 32 245 154 236 185 229 298 257 220 203 194 193 195 191 184 167 171 174 187 175 196 192 167 161 158 177 198 280 342 77 231 210 222
335 325 320 343 21 14 87 46 356 1 2 231 229 50 248 215 234 232 239 247 209 181 190 187 187 172 174 172 181 195 176 194 199 185 178 181 194 196 228 262 201 175 224 240
122 318 85 279 161 181 79 116 155 354 312 288 273 284 270 220 230 247 4 354 183 181 188 190 184 178 178 174 191 192 182 188 193 190 191 187 191 180 207 193 205 219 201 203
159 256 299 276 66 78 15 43 249 111 160 18 232 282 244 302 324 322 14 40 25 16 286 183 187 183 175 168 207 195 179 188 190 198 180 189 188 178 199 223 225 215 238 241
213 286 219 267 76 12 120 171 17 16 346 322 287 294 250 262 267 309 50 30 8 48 110 73 17 234 162 208 210 191 178 185 185 191 189 190 190 201 212 212 231 234 244 250
159 137 275 15 60 173 60 50 44 111 138 186 309 282 238 193 213 231 91 345 23 113 108 127 151 325 270 236 237 184 179 163 178 198 194 196 192 203 217 218 231 232 233 236
158 146 149 193 305 196 158 160 148 127 229 188 149 275 342 7 71 113 154 124 60 128 81 97 133 236 236 228 266 211 190 178 197 193 196 205 197 196 214 223 234 233 231 239
195 17 52 359 351 355 275 190 134 128 108 187 142 261 163 78 65 181 164 167 185 205 198 176 170 202 200 115 256 249 215 205 203 179 198 204 203 201 227 233 238 241 236 239
87 107 146 178 210 187 301 305 200 146 110 182 226 280 209 200 128 324 317 108 194 211 218 198 191 173 167 158 165 200 225 207 209 196 203 210 215 219 229 234 241 237 233 238
95 128 173 212 236 5 351 328 243 200 183 166 220 199 268 186 194 232 278 316 306 217 248 247 204 201 173 140 168 195 214 191 198 172 197 230 232 230 238 240 236 238 238 238
13 251 90 328 357 7 327 299 56 31 317 352 71 359 293 78 47 265 231 286 292 285 289 260 203 201 172 160 176 186 176 193 184 166 204 223 223 232 237 243 240 243 250 252
129 119 75 278 356 10 355 338 48 91 90 72 176 196 166 169 237 247 258 227 247 257 275 293 3 164 162 172 163 167 191 206 185 193 230 242 249 258 253 247 253 250 253 263
156 139 129 220 39 17 245 320 28 108 54 349 90 146 176 172 247 232 221 209 213 134 59 47 88 116 136 119 126 142 179 198 201 223 238 248 256 264 273 265 253 260 252 255
139 112 101 127 157 269 310 336 57 45 299 257 93 177 129 139 326 306 217 199 166 124 114 95 93 91 87 106 144 136 144 247 260 265 269 271 271 279 285 279 290 314 314 303
62 62 121 108 147 216 256 321 86 156 327 0 343 47 144 197 145 259 213 135 121 117 112 105 94 97 101 121 122 102 49 7 324 290 291 319 336 347 339 341 329 286 274 277
2 18 104 78 225 276 235 317 136 84 271 340 3 19 41 297 228 214 153 136 135 134 127 118 112 125 141 132 88 89 58 29 318 4 6 8 16 15 0 324 294 312 324 325
122 46 56 122 89 8 2 4 79 186 254 320 47 29 328 313 300 171 157 129 125 137 138 138 132 118 93 82 90 89 47 313 11 36 22 22 27 26 16 21 0 0 4 351
25 168 177 101 207 273 284 138 197 187 169 149 168 183 225 287 238 191 154 145 170 175 156 111 97 79 50 46 52 77 341 12 41 47 31 15 18 16 16 20 10 8 3 20
340 103 78 114 293 250 227 193 187 198 176 213 208 191 220 259 0 51 128 120 93 115 97 103 93 83 64 45 50 60 30 31 49 46 18 357 26 14 10 13 22 32 15 31
217 113 155 76 298 297 272 250 228 216 185 233 213 235 234 165 58 78 85 85 83 95 100 99 95 83 69 59 48 32 22 33 43 38 12 11 24 27 15 5 2 25 43 48
194 193 167 218 198 199 232 220 232 265 248 238 338 313 359 111 109 100 91 90 103 101 103 86 80 81 86 74 57 25 26 43 37 17 4 6 27 22 26 22 1 36 91 84